Moses Lake, WA

5:54 AM PDT on April 29, 2017 (GMT -0700)
Grant County International

Weather History for KMWH - April, 2012

Change the Weather History Date:

Sunday, April 15, 2012

  Actual Average Record
Temperature  
Mean Temperature 55 °F 50 °F  
Max Temperature 68 °F 63 °F 76 °F (1984)
Min Temperature 41 °F 37 °F 25 °F (2005)
Degree Days  
Heating Degree Days 10 15  
Month to date heating degree days 261 248  
Since 1 July heating degree days 5402 5420  
Cooling Degree Days 0 0  
Month to date cooling degree days 0 0  
Year to date cooling degree days 0 0  
Growing Degree Days 4 (Base 50)    
Moisture  
Dew Point 26 °F    
Average Humidity 38    
Maximum Humidity 58    
Minimum Humidity 18    
Precipitation  
Precipitation 0.00 in 0.02 in 0.07 in (2011)
Month to date precipitation 0.16 0.36  
Year to date precipitation 2.09 3.08  
Sea Level Pressure  
Sea Level Pressure 30.05 in    
Wind  
Wind Speed 5 mph (SW)    
Max Wind Speed 16 mph    
Max Gust Speed 23 mph    
Visibility 10 miles    
Events      
T = Trace of Precipitation, MM = Missing Value Source: NWS Daily Summary

Daily Weather History Graph

Daily Weather History Graph

Search for Another Location

Airport or City:

Trip Planner

Search our weather history database for the weather conditions in past years. The results will help you decide how hot, cold, wet, or windy it might be!

Date:

Astronomy

Apr. 15, 2012 Rise Set
Actual Time 6:08 AM PDT 7:47 PM PDT
Civil Twilight 5:35 AM PDT 8:19 PM PDT
Nautical Twilight 4:56 AM PDT 8:58 PM PDT
Astronomical Twilight 4:14 AM PDT 9:41 PM PDT
Moon 3:29 AM PDT (4/15) 2:27 PM PDT (4/15)
Length of Visible Light 14h 43m
Length of Day
13h 39m
Waning Crescent, 26% of the Moon is Illuminated
Apr 15
Waning Crescent
Apr 21
New
Apr 29
First Quarter
May 5
Full
May 12
Last Quarter

Hourly Weather History & Observations

Time (PDT) Temp. Windchill Dew Point Humidity Pressure Visibility Wind Dir Wind Speed Gust Speed Precip Events Conditions
12:52 AM 48.0 °F - 25.0 °F 41% 30.01 in 10.0 mi WSW 4.6 mph - N/A   Clear
1:52 AM 46.0 °F 43.1 °F 26.1 °F 46% 30.03 in 10.0 mi NW 5.8 mph - N/A   Clear
2:52 AM 44.1 °F 41.5 °F 26.1 °F 49% 30.05 in 10.0 mi West 4.6 mph - N/A   Clear
3:52 AM 44.1 °F 39.5 °F 26.1 °F 49% 30.06 in 10.0 mi WNW 8.1 mph - N/A   Clear
4:52 AM 44.1 °F - 28.0 °F 53% 30.07 in 10.0 mi Calm Calm - N/A   Clear
5:52 AM 41.0 °F - 27.0 °F 57% 30.09 in 10.0 mi Calm Calm - N/A   Clear
6:52 AM 44.1 °F - 30.9 °F 60% 30.09 in 10.0 mi Calm Calm - N/A   Clear
7:52 AM 46.4 °F 42.4 °F 28.4 °F 50% 30.10 in 10.0 mi SSW 8.1 mph - N/A   Clear
8:52 AM 52.0 °F - 30.0 °F 43% 30.12 in 10.0 mi SW 8.1 mph - N/A   Clear
9:52 AM 55.9 °F - 27.0 °F 33% 30.11 in 10.0 mi West 4.6 mph - N/A   Clear
10:52 AM 59.0 °F - 27.0 °F 29% 30.11 in 10.0 mi Variable 4.6 mph - N/A   Clear
11:52 AM 59.0 °F - 25.0 °F 27% 30.10 in 10.0 mi Variable 3.5 mph - N/A   Clear
12:52 PM 61.0 °F - 24.1 °F 24% 30.09 in 10.0 mi Calm Calm - N/A   Clear
1:52 PM 62.1 °F - 25.0 °F 24% 30.07 in 10.0 mi South 5.8 mph - N/A   Mostly Cloudy
2:52 PM 64.0 °F - 19.9 °F 18% 30.05 in 10.0 mi SW 6.9 mph - N/A   Clear
3:52 PM 66.9 °F - 21.9 °F 18% 30.03 in 10.0 mi South 9.2 mph - N/A   Partly Cloudy
4:52 PM 66.0 °F - 21.0 °F 18% 30.03 in 10.0 mi WSW 11.5 mph - N/A   Overcast
5:52 PM 66.0 °F - 21.9 °F 19% 30.02 in 10.0 mi SSW 10.4 mph - N/A   Overcast
6:52 PM 64.0 °F - 21.9 °F 20% 30.01 in 10.0 mi SSW 4.6 mph - N/A   Overcast
7:52 PM 59.0 °F - 26.1 °F 28% 30.01 in 10.0 mi South 9.2 mph - N/A   Partly Cloudy
8:52 PM 55.9 °F - 27.0 °F 33% 30.02 in 10.0 mi Calm Calm - N/A   Clear
9:52 PM 52.0 °F - 26.1 °F 37% 30.02 in 10.0 mi NNW 8.1 mph - N/A   Overcast
10:52 PM 52.0 °F - 26.1 °F 37% 30.01 in 10.0 mi Calm Calm - N/A   Overcast
11:52 PM 48.0 °F - 30.0 °F 50% 30.01 in 10.0 mi NE 3.5 mph - N/A   Overcast